Torna al catalogo

ONEWEB-0695

AttivoComunicazioniPO
NORAD 61602·PAYLOAD·🇬🇧 United Kingdom

Lanciato Oct 20, 2024 da Vandenberg Space Force Base

Loading…

Prossimi Passaggi (prossime 24 ore)

TLE

AggiornatoSource: CelesTrak SupGP

Epoca: Sep 14, 2026, 22:32 UTC

1 61602C 24188J   26257.93906667 -.00001734  00000+0 -48989-2 0  2579
2 61602  87.8958   3.2296 0001284 107.4184 354.5345 13.11414618    14

Traccia ONEWEB-0695 in tempo reale con AllMySat

Download on the App Store